Content
SEND FEEDBACK

Daily
Averages
Monthly
Summary
United States of America

ST. LOUIS, MISSOURI


Home > North America > United States > Missouri
Elevation: 163 meters     Latitude: 38 45N     Longitude: 090 22W

WEATHER
 
SELECT A DAY
Number of Records: 196,291;   Date Range: 1/1/95 - 7/22/14
 
SHARE

PRINT THIS DATA

[ ← Previous Day ]
WEATHER ALMANAC - JUNE 14, 2013
[ Next Day → ]
[ °C ]   °F
Weather ElementAverageHighLow
Temperature72.8 °F84 °F (2:54 pm)59 °F (5:54 am)
Dewpoint59.5 °F64 °F (8:54 pm)57 °F (5:54 am)
Humidity66 %93 % (2:54 am)41 % (2:54 pm)
Barometer30.02 in30.07 in (8:54 am)29.96 in (4:54 pm)
Wind Speed3.6 mph6.9 mph (7:54 am)
Weather ElementAverage
Visibility9.8 mi
Wind DirectionENE (83.9 °)

Weather ElementTotal
Precipitation---
Cooling Degree Days6.5 (Base 65)
Growing Degree Days21.5 (Base 50)
Averaged from 23 records on June 14, 2013
WEATHER CONDITIONS BREAKOUT
WIND DIRECTION BREAKOUT
WEATHER BY HOUR - JUNE 14, 2013
[ °C ]   °F
Local TimeTemperatureDewpointHumidityBarometerVisibilityWind DirectionWind SpeedGust SpeedPrecipitationEventsConditions
1:54 AM63.0 °F59.0 °F87 %30.00 in10.0 miCalmClear
2:54 AM62.1 °F60.1 °F93 %30.00 in10.0 miCalmClear
3:54 AM61.0 °F57.9 °F90 %30.00 in10.0 miCalmClear
4:54 AM60.1 °F57.9 °F93 %30.01 in8.0 miCalmClear
5:54 AM59.0 °F57.0 °F93 %30.03 in9.0 miCalmMostly Cloudy
6:54 AM63.0 °F61.0 °F93 %30.04 in9.0 miCalmScattered Clouds
7:54 AM68.0 °F61.0 °F78 %30.06 in10.0 miEast (90°)6.9 mphClear
8:54 AM72.0 °F57.9 °F61 %30.07 in10.0 miESE (110°)6.9 mphClear
9:54 AM75.0 °F57.9 °F55 %30.07 in10.0 miESE (110°)6.9 mphClear
10:54 AM78.1 °F59.0 °F52 %30.05 in10.0 miSE (140°)6.9 mphClear
11:54 AM79.0 °F57.0 °F47 %30.05 in10.0 miSouth (170°)6.9 mphScattered Clouds
12:54 PM80.1 °F57.9 °F47 %30.04 in10.0 miSSE (150°)4.6 mphMostly Cloudy
1:54 PM82.0 °F57.9 °F44 %30.05 in10.0 miCalmMostly Cloudy
2:54 PM84.0 °F57.9 °F41 %30.07 in10.0 miWest (280°)6.9 mphClear
3:54 PM82.9 °F59.0 °F44 %30.04 in10.0 miENE (60°)5.8 mphMostly Cloudy
4:54 PM82.0 °F57.0 °F42 %29.96 in10.0 miVariable6.9 mphMostly Cloudy
5:54 PM82.9 °F60.1 °F46 %29.97 in10.0 miSouth (190°)6.9 mphMostly Cloudy
6:54 PM81.0 °F61.0 °F50 %29.96 in10.0 miSSE (160°)3.5 mphClear
7:54 PM75.9 °F62.1 °F62 %29.96 in10.0 miSSE (150°)4.6 mphMostly Cloudy
8:54 PM72.0 °F64.0 °F76 %29.99 in10.0 miCalmClear
9:54 PM72.0 °F62.1 °F71 %29.98 in10.0 miSSE (160°)4.6 mphClear
10:54 PM69.1 °F63.0 °F81 %30.01 in10.0 miCalmClear
11:54 PM70.0 °F61.0 °F73 %29.98 in10.0 miSSE (160°)4.6 mphPartly Cloudy
Hourly data recorded from KSUS, located miles away from St. Louis, Missouri







STORIES FROM OUR PARTNERS